Content
SEND FEEDBACK

Daily
Averages
Monthly
Summary
United States of America

BOSTON, MASSACHUSETTS


Home > North America > United States > Massachusetts
Elevation: 4 feet     Latitude: 42 22N     Longitude: 071 02W

WEATHER
 
SELECT A DAY
Number of Records: 207,025;   Date Range: 1/1/95 - 12/19/14
 
SHARE

PRINT THIS DATA

[ ← Previous Day ]
WEATHER ALMANAC - NOVEMBER 16, 2013
[ Next Day → ]
[ °C ]   °F
Weather ElementAverageHighLow
Temperature47.7 °F57.9 °F (11:54 am)43 °F (1:54 am)
Dewpoint30 °F37 °F (9:54 pm)21.9 °F (11:54 am)
Humidity52.3 %80 % (9:54 pm)25 % (11:54 am)
Barometer30.28 in30.33 in (11:54 pm)30.21 in (1:54 am)
Wind Speed5.1 mph12.7 mph (5:54 am)
Weather ElementAverage
Visibility10 mi
Wind DirectionSSW (191.7 °)

Weather ElementTotal
Precipitation---
Heating Degree Days14.6 (Base 65)
Growing Degree Days0.5 (Base 50)
Averaged from 23 records on November 16, 2013
WEATHER CONDITIONS BREAKOUT
WIND DIRECTION BREAKOUT
WEATHER BY HOUR - NOVEMBER 16, 2013
[ °C ]   °F
Local TimeTemperatureDewpointHumidityBarometerVisibilityWind DirectionWind SpeedGust SpeedPrecipitationEventsConditions
1:54 AM43.0 °F32.0 °F65 %30.21 in10.0 miSSW (210°)8.1 mphOvercast
2:54 AM44.1 °F32.0 °F63 %30.21 in10.0 miSW (230°)9.2 mphOvercast
3:54 AM45.0 °F30.0 °F56 %30.22 in10.0 miWest (280°)5.8 mphOvercast
4:54 AM45.0 °F27.0 °F49 %30.23 in10.0 miWNW (290°)10.4 mphOvercast
5:54 AM46.9 °F27.0 °F46 %30.24 in10.0 miWest (260°)12.7 mphOvercast
6:54 AM46.0 °F25.0 °F44 %30.26 in10.0 miWNW (300°)6.9 mphOvercast
7:54 AM48.0 °F25.0 °F41 %30.27 in10.0 miWest (270°)4.6 mphOvercast
8:54 AM48.9 °F28.0 °F44 %30.29 in10.0 miWSW (250°)3.5 mphOvercast
9:54 AM50.0 °F24.1 °F36 %30.31 in10.0 miWNW (290°)6.9 mphMostly Cloudy
10:54 AM53.1 °F24.1 °F32 %30.30 in10.0 miWNW (300°)3.5 mphMostly Cloudy
11:54 AM57.9 °F21.9 °F25 %30.28 in10.0 miWest (270°)3.5 mphScattered Clouds
12:54 PM55.0 °F28.0 °F35 %30.27 in10.0 miESE (120°)6.9 mphPartly Cloudy
1:54 PM53.1 °F33.1 °F47 %30.27 in10.0 miEast (80°)5.8 mphPartly Cloudy
2:54 PM53.1 °F30.0 °F41 %30.29 in10.0 miEast (100°)4.6 mphClear
3:54 PM48.9 °F35.1 °F59 %30.30 in10.0 miENE (70°)3.5 mphPartly Cloudy
4:54 PM46.9 °F36.0 °F66 %30.31 in10.0 miSE (130°)3.5 mphPartly Cloudy
5:54 PM46.0 °F32.0 °F58 %30.32 in10.0 miCalmPartly Cloudy
6:54 PM46.0 °F30.9 °F56 %30.32 in10.0 miSouth (180°)3.5 mphPartly Cloudy
7:54 PM46.0 °F28.0 °F50 %30.32 in10.0 miSSW (200°)3.5 mphPartly Cloudy
8:54 PM46.0 °F32.0 °F58 %30.32 in10.0 miSW (220°)3.5 mphClear
9:54 PM43.0 °F37.0 °F80 %30.32 in10.0 miSSE (160°)4.6 mphClear
10:54 PM43.0 °F36.0 °F76 %30.32 in10.0 miSSW (200°)3.5 mphClear
11:54 PM43.0 °F36.0 °F76 %30.33 in10.0 miCalmClear
Hourly data recorded from KBOS, located miles away from Boston, Massachusetts







STORIES FROM OUR PARTNERS